Weather History for KRTN - December, 2013

Change the Weather History Date:

Friday, December 6, 2013

  Actual Average (KTAD) Record (KTAD)
Temperature  
Mean Temperature 9 °F 32 °F  
Max Temperature 12 °F 47 °F - ()
Min Temperature 6 °F 18 °F - ()
Degree Days  
Heating Degree Days 56 33  
Month to date heating degree days 191  
Since 1 July heating degree days 1424  
Cooling Degree Days 0 0  
Month to date cooling degree days 0  
Year to date cooling degree days 719  
Moisture  
Dew Point 5 °F    
Average Humidity 82    
Maximum Humidity 88    
Minimum Humidity 73    
Precipitation  
Precipitation 0.00 in 0.02 in - ()
Month to date precipitation 0.12  
Year to date precipitation 13.42  
Sea Level Pressure  
Sea Level Pressure 30.13 in    
Wind  
Wind Speed 6 mph (SSW)    
Max Wind Speed 12 mph    
Max Gust Speed -    
Visibility 5 miles    
Events Snow    
T = Trace of Precipitation, MM = Missing Value Source: NWS Daily Summary

Daily Weather History Graph

Daily Weather History Graph

Search for Another Location

Airport or City:

Trip Planner

Search our weather history database for the weather conditions in past years. The results will help you decide how hot, cold, wet, or windy it might be!

Date:

Astronomy

Dec. 06, 2013 Rise Set
Actual Time 6:56 AM MST 4:41 PM MST
Civil Twilight 6:28 AM MST 5:10 PM MST
Nautical Twilight 5:55 AM MST 5:42 PM MST
Astronomical Twilight 5:24 AM MST 6:13 PM MST
Moon 10:07 AM MST (12/6) 9:12 PM MST (12/6)
Length of Visible Light 10h 42m
Length of Day
9h 45m
Waxing Crescent, 20% of the Moon is Illuminated
Dec 6
Waxing Crescent
Dec 9
First Quarter
Dec 17
Full
Dec 25
Last Quarter
Jan 1
New

Hourly Weather History & Observations

Time (MST) Temp. Windchill Dew Point Humidity Pressure Visibility Wind Dir Wind Speed Gust Speed Precip Events Conditions
12:03 AM 7.0 °F -1.7 °F 3.9 °F 87% 29.92 in 5.0 mi SSW 4.6 mph - 0.00 in Snow Light Snow
12:53 AM 7.0 °F - 3.0 °F 84% 30.14 in 6.0 mi Calm Calm - 0.00 in   Overcast
1:53 AM 7.0 °F - 3.0 °F 84% 30.15 in 7.0 mi Calm Calm - 0.00 in   Overcast
2:53 AM 7.0 °F - 3.0 °F 84% 30.16 in 10.0 mi Calm Calm - 0.00 in   Overcast
3:53 AM 6.1 °F -6.8 °F 3.0 °F 87% 30.17 in 8.0 mi South 8.1 mph - 0.00 in   Overcast
4:53 AM 6.1 °F -5.6 °F 3.0 °F 87% 30.19 in 8.0 mi South 6.9 mph - N/A   Overcast
5:53 AM 7.0 °F 0.1 °F 3.0 °F 84% 30.19 in 5.0 mi SSW 3.5 mph - 0.00 in Snow Light Snow
6:05 AM 7.0 °F -5.7 °F 3.0 °F 84% 29.97 in 5.0 mi South 8.1 mph - 0.00 in Snow Light Snow
6:41 AM 6.1 °F -6.8 °F 3.0 °F 87% 29.99 in 5.0 mi SSW 8.1 mph - 0.00 in Snow Light Snow
6:53 AM 6.1 °F -5.6 °F 3.0 °F 87% 30.24 in 7.0 mi South 6.9 mph - 0.00 in   Overcast
7:30 AM 6.1 °F -7.8 °F 3.0 °F 87% 30.01 in 5.0 mi South 9.2 mph - 0.00 in Snow Light Snow
7:53 AM 7.0 °F -5.7 °F 3.0 °F 84% 30.27 in 3.0 mi South 8.1 mph - 0.00 in Snow Light Snow
8:05 AM 7.0 °F -5.7 °F 3.0 °F 84% 30.03 in 2.5 mi SSW 8.1 mph - 0.00 in Snow Light Snow
8:23 AM 7.0 °F -3.3 °F 3.9 °F 87% 30.03 in 1.0 mi SSW 5.8 mph - 0.00 in Snow Light Snow
8:31 AM 7.0 °F -3.3 °F 3.0 °F 84% 30.03 in 3.0 mi South 5.8 mph - 0.00 in Snow Light Snow
8:51 AM 6.8 °F -0.1 °F 3.2 °F 85% 30.04 in 4.0 mi South 3.5 mph - 0.00 in Snow Light Snow
8:53 AM 7.0 °F 0.1 °F 3.0 °F 84% 30.28 in 4.0 mi Variable 3.5 mph - 0.00 in Snow Light Snow
9:10 AM 8.1 °F -4.3 °F 3.0 °F 80% 30.04 in 4.0 mi SSW 8.1 mph - 0.00 in Snow Light Snow
9:53 AM 8.1 °F -5.3 °F 3.0 °F 80% 30.29 in 7.0 mi WSW 9.2 mph - 0.00 in   Overcast
10:53 AM 10.0 °F -0.9 °F 5.0 °F 80% 30.28 in 6.0 mi South 6.9 mph - 0.00 in Snow Light Snow
11:53 AM 10.9 °F 2.9 °F 3.9 °F 73% 30.26 in 5.0 mi Variable 4.6 mph - 0.00 in Snow Light Snow
12:53 PM 12.0 °F 0.5 °F 6.1 °F 77% 30.24 in 9.0 mi SSW 8.1 mph - 0.00 in   Overcast
1:44 PM 12.9 °F 0.7 °F 7.0 °F 77% 30.02 in 5.0 mi SSW 9.2 mph - 0.00 in Snow Light Snow
1:53 PM 12.0 °F 1.5 °F 6.1 °F 77% 30.25 in 6.0 mi South 6.9 mph - 0.00 in Snow Light Snow
2:14 PM 12.0 °F -2.0 °F 6.1 °F 77% 30.02 in 3.0 mi South 11.5 mph - 0.00 in Snow Light Snow
2:31 PM 12.0 °F -0.4 °F 6.1 °F 77% 30.02 in 5.0 mi South 9.2 mph - 0.00 in Snow Light Snow
2:45 PM 12.0 °F 2.7 °F 6.1 °F 77% 30.02 in 5.0 mi South 5.8 mph - 0.00 in Snow Light Snow
2:53 PM 12.0 °F 1.5 °F 6.1 °F 77% 30.24 in 4.0 mi South 6.9 mph - 0.00 in Snow Light Snow
3:29 PM 12.0 °F -0.4 °F 6.1 °F 77% 30.03 in 2.5 mi South 9.2 mph - 0.00 in Snow Light Snow
3:36 PM 12.0 °F -0.4 °F 6.1 °F 77% 30.03 in 3.0 mi SW 9.2 mph - 0.00 in Snow Light Snow
3:53 PM 12.0 °F 0.5 °F 6.1 °F 77% 30.27 in 3.0 mi SW 8.1 mph - 0.00 in Snow Light Snow
4:24 PM 12.0 °F 0.5 °F 7.0 °F 80% 30.05 in 2.5 mi SSW 8.1 mph - 0.00 in Snow Light Snow
4:53 PM 12.0 °F -0.4 °F 8.1 °F 84% 30.29 in 2.5 mi SSW 9.2 mph - 0.00 in Snow Light Snow
5:00 PM 12.0 °F 0.5 °F 7.0 °F 80% 30.06 in 4.0 mi SSW 8.1 mph - 0.00 in Snow Light Snow
5:34 PM 10.9 °F -1.8 °F 8.1 °F 88% 30.07 in 2.5 mi South 9.2 mph - 0.00 in Snow Light Snow
5:42 PM 10.9 °F -2.6 °F 8.1 °F 88% 30.08 in 3.0 mi SSW 10.4 mph - 0.00 in Snow Light Snow
5:53 PM 10.9 °F -2.6 °F 7.0 °F 84% 30.32 in 3.0 mi South 10.4 mph - 0.00 in Snow Light Snow
6:53 PM 10.9 °F -2.6 °F 8.1 °F 88% 30.33 in 4.0 mi South 10.4 mph - 0.00 in Snow Light Snow